• Processing (Info)

  • MPEC 2016-M05 : 2016 LF51

    The following Minor Planet Electronic Circular may be linked-to from your own Web pages, but must not otherwise be redistributed electronically.

    A form allowing access to any MPEC is at the bottom of this page.


    Read MPEC 2016-M04 Read MPEC 2016-M06


    M.P.E.C. 2016-M05                                Issued 2016 June 16, 15:25 UT
    
         The Minor Planet Electronic Circulars contain information on unusual
             minor planets and routine data on comets.  They are published
        on behalf of Division F of the International Astronomical Union by the
              Minor Planet Center, Smithsonian Astrophysical Observatory,
                              Cambridge, MA 02138, U.S.A.
    
                 Prepared using the Tamkin Foundation Computer Network
    
                                  MPC@CFA.HARVARD.EDU
                URL https://www.minorplanetcenter.net/    ISSN 1523-6714
    
                                       2016 LF51
    
    Observations:
         K16L51F* C2016 06 13.56042 21 28 30.757-31 53 24.41         19.1 wLEM005F51
         K16L51F  C2016 06 13.57207 21 28 33.171-31 53 28.91         19.1 wLEM005F51
         K16L51F  C2016 06 13.58371 21 28 35.581-31 53 33.37         19.0 wLEM005F51
         K16L51F  C2016 06 13.59537 21 28 37.989-31 53 37.75         19.0 wLEM005F51
         K16L51F  C2016 06 14.42927 21 31 37.99 -31 58 46.5          19.2 RuEM005926
         K16L51F  C2016 06 14.43139 21 31 38.42 -31 58 47.1          18.8 RoEM005926
         K16L51F  C2016 06 14.43343 21 31 38.86 -31 58 48.5          19.2 RuEM005926
         K16L51F  C2016 06 14.43898 21 31 39.99 -31 58 50.5          19.3 RuEM005926
         K16L51F  C2016 06 14.44036 21 31 40.26 -31 58 50.6          18.8 RoEM005926
         K16L51F  C2016 06 14.44314 21 31 40.85 -31 58 52.1          19.1 RuEM005926
         K16L51F  C2016 06 14.44870 21 31 41.99 -31 58 54.7          19.1 RuEM005926
         K16L51F  C2016 06 14.45184 21 31 42.64 -31 58 55.2          18.9 RoEM005926
         K16L51F  C2016 06 14.45287 21 31 42.84 -31 58 56.4          19.2 RuEM005926
         K16L51F KC2016 06 14.69203 21 32 34.60 -32 00 03.9          19.0 VqEM005E23
         K16L51F KC2016 06 14.70591 21 32 37.48 -32 00 09.4          19.0 VqEM005E23
         K16L51F KC2016 06 14.71980 21 32 40.32 -32 00 13.7          19.1 VqEM005E23
         K16L51F  C2016 06 15.43709 21 35 14.63 -32 04 48.7          19.7 RuEM005926
         K16L51F  C2016 06 15.44046 21 35 15.35 -32 04 50.5          19.4 RuEM005926
         K16L51F  C2016 06 15.44655 21 35 16.61 -32 04 52.7          19.2 RuEM005926
         K16L51F  C2016 06 15.44992 21 35 17.31 -32 04 53.6          19.2 RuEM005926
         K16L51F KC2016 06 15.45414 21 35 18.19 -32 04 54.3          19.0 RoEM005291
         K16L51F KC2016 06 15.45591 21 35 18.55 -32 04 55.1          19.0 RoEM005291
         K16L51F  C2016 06 15.45602 21 35 18.55 -32 04 56.3          19.9 RuEM005926
         K16L51F KC2016 06 15.45769 21 35 18.92 -32 04 55.7          19.1 RoEM005291
         K16L51F  C2016 06 15.45940 21 35 19.25 -32 04 56.8          19.4 RuEM005926
         K16L51F KC2016 06 16.41027 21 38 43.65 -32 10 27.5          19.0 RoEM005291
         K16L51F KC2016 06 16.41273 21 38 44.17 -32 10 28.5          19.0 RoEM005291
         K16L51F KC2016 06 16.41517 21 38 44.67 -32 10 29.4          18.8 RoEM005291
         K16L51F  C2016 06 16.44596 21 38 50.93 -32 10 40.2          18.7 RoEM005926
         K16L51F  C2016 06 16.45373 21 38 52.56 -32 10 43.0          18.7 RoEM005926
         K16L51F  C2016 06 16.46153 21 38 54.15 -32 10 45.8          18.8 RoEM005926
    
    Observer details:
    291 LPL/Spacewatch II.  Observer T. H. Bressi.  1.8-m f/2.7 reflector + CCD.
    926 Tenagra II Observatory.  Observers M. Schwartz, P. R. Holvorcem.  Measurer
        M. Schwartz.  0.41-m f/3.75 astrograph + CCD, 0.81-m f/7 Ritchey-Chretien
        + CCD.
    E23 Arcadia.  Observer A. Hidas.  0.35-m f/1.9 reflector + CCD.
    F51 Pan-STARRS 1, Haleakala.  Observers B. Gibson, T. Goggia, N. Primak,
        A. Schultz, M. Willman.  Measurers K. Chambers, S. Chastel, L. Denneau,
        H. Flewelling, M. Huber, E. Lilly, E. Magnier, R. Wainscoat, C. Waters,
        R. Weryk.  1.8-m Ritchey-Chretien + CCD.
    
    Orbital elements:
    2016 LF51
    Epoch 2016 July 31.0 TT = JDT 2457600.5                 MPC
    M   4.65588              (2000.0)            P               Q
    n   0.22604491     Peri.  245.39369     +0.48237300     +0.86912553
    a   2.6689446      Node    53.88914     -0.74681587     +0.47322750
    e   0.5111451      Incl.    7.77247     -0.45780164     +0.14379344
    P   4.36           H   18.8           G   0.15           U   8
    Residuals in seconds of arc
    160613 F51  0.3-  0.0     160614 926  0.4-  0.2-    160615 926  0.4-  0.9-
    160613 F51  0.3-  0.0     160614 926  0.6-  1.0-    160615 291  0.2-  0.4+
    160613 F51  0.2-  0.0     160614 E23  0.2-  0.2-    160615 926  0.3-  0.2-
    160613 F51  0.2-  0.0     160614 E23  0.2-  0.5-    160616 291  0.1-  0.0
    160614 926  0.1-  0.0     160614 E23  0.7-  0.4+    160616 291  0.1+  0.1-
    160614 926  0.2-  0.2+    160615 926  0.5-  0.2-    160616 291  0.0   0.1-
    160614 926  0.0   0.4-    160615 926  0.2-  0.8-    160616 926  0.9-  0.1+
    160614 926  0.2-  0.3-    160615 926  0.2-  0.7-    160616 926  0.5-  0.1+
    160614 926  0.4-  0.1+    160615 926  0.1-  0.4-    160616 926  0.7-  0.0
    160614 926  0.2-  0.4-    160615 291  0.2-  0.5+
    160614 926  0.4-  0.9-    160615 291  0.3-  0.3+
    
    Ephemeris:
    2016 LF51                a,e,i = 2.67, 0.51, 8                   q = 1.3047
    Date    TT    R. A. (2000) Decl.     Delta      r     Elong.  Phase     V
    2016 05 17    19 52 15.6 -28 24 25   0.6091  1.4265   121.4    37.3    20.0
    ...
    2016 06 01    20 43 27.9 -30 24 33   0.5113  1.3709   124.6    37.5    19.5
    ...
    2016 06 09    21 12 05.2 -31 23 14   0.4713  1.3474   126.0    37.5    19.3
    ...
    2016 06 15    21 33 40.3 -32 01 55   0.4466  1.3329   126.9    37.5    19.2
    2016 06 16    21 37 15.0 -32 07 48   0.4429  1.3308   127.1    37.5    19.2
    2016 06 17    21 40 49.2 -32 13 31   0.4393  1.3287   127.2    37.5    19.1
    ...
    2016 06 23    22 01 53.9 -32 43 53   0.4204  1.3181   128.1    37.3    19.0
    ...
    2016 07 01    22 28 26.5 -33 13 31   0.4011  1.3086   129.4    36.9    18.9
    ...
    2016 07 16    23 09 34.2 -33 35 31   0.3812  1.3061   132.9    34.8    18.7
    
    A. U. Tomatic                (C) Copyright 2016 MPC           M.P.E.C. 2016-M05
    

    Read MPEC 2016-M04 Read MPEC 2016-M06


    MPEC number:

    Enter an MPEC number in one of the following forms:

    • 1997-B01 (the full form)
    • J97B01 (the packed version of the full form)
    • B01 (the abbreviated form)